Time,TemperatureF,DewpointF,PressureIn,WindDirection,WindDirectionDegrees,WindSpeedMPH,WindSpeedGustMPH,Humidity,HourlyPrecipIn,Conditions,Clouds,dailyrainin,SoftwareType,DateUTC
2013-02-13 00:00:00,36.0,32.7,29.42,North,0,1.0,3.0,88,0.05,,,0.24,meteohub,2013-02-13 05:00:00,
2013-02-13 00:02:00,36.0,32.7,29.42,North,0,3.0,3.0,88,0.05,,,0.24,meteohub,2013-02-13 05:02:00,
2013-02-13 00:08:00,36.0,32.7,29.43,SE,135,0.0,3.0,88,0.06,,,0.01,meteohub,2013-02-13 05:08:00,
2013-02-13 00:17:00,36.0,32.7,29.40,NE,45,2.0,4.0,88,0.07,,,0.02,meteohub,2013-02-13 05:17:00,
2013-02-13 00:23:00,36.0,33.1,29.42,North,0,2.0,4.0,89,0.07,,,0.02,meteohub,2013-02-13 05:23:00,
2013-02-13 00:30:00,36.0,33.1,29.40,East,90,1.0,4.0,89,0.07,,,0.02,meteohub,2013-02-13 05:30:00,
2013-02-13 00:36:00,36.1,33.3,29.40,NE,45,2.0,4.0,89,0.06,,,0.02,meteohub,2013-02-13 05:36:00,
2013-02-13 00:42:00,36.1,33.3,29.39,NW,315,2.0,4.0,89,0.04,,,0.02,meteohub,2013-02-13 05:42:00,
2013-02-13 00:48:00,36.3,33.6,29.39,NE,45,2.0,4.0,90,0.02,,,0.02,meteohub,2013-02-13 05:48:00,
2013-02-13 00:54:00,36.3,33.6,29.39,North,0,1.0,4.0,90,0.02,,,0.02,meteohub,2013-02-13 05:54:00,
2013-02-13 01:00:00,36.3,33.6,29.38,NE,45,1.0,2.0,90,0.02,,,0.02,meteohub,2013-02-13 06:00:00,
2013-02-13 01:07:00,36.3,33.6,29.39,NE,45,1.0,2.0,90,0.01,,,0.02,meteohub,2013-02-13 06:07:00,
2013-02-13 01:13:00,36.5,33.8,29.38,SW,225,2.0,2.0,90,0.01,,,0.02,meteohub,2013-02-13 06:13:00,
2013-02-13 01:19:00,36.5,33.8,29.38,NE,45,2.0,2.0,90,0.00,,,0.02,meteohub,2013-02-13 06:19:00,
2013-02-13 01:25:00,36.5,33.8,29.38,NE,45,0.0,2.0,90,0.00,,,0.02,meteohub,2013-02-13 06:25:00,
2013-02-13 01:31:00,36.7,34.0,29.38,NE,45,2.0,2.0,90,0.00,,,0.02,meteohub,2013-02-13 06:31:00,
2013-02-13 01:37:00,36.7,34.0,29.37,NE,45,2.0,2.0,90,0.01,,,0.04,meteohub,2013-02-13 06:37:00,
2013-02-13 01:43:00,36.7,34.0,29.37,NE,45,0.0,2.0,90,0.01,,,0.04,meteohub,2013-02-13 06:43:00,
2013-02-13 01:49:00,36.9,34.2,29.37,North,0,1.0,2.0,90,0.01,,,0.04,meteohub,2013-02-13 06:49:00,
2013-02-13 01:55:00,36.9,34.2,29.36,South,180,1.0,3.0,90,0.01,,,0.04,meteohub,2013-02-13 06:55:00,
2013-02-13 02:02:00,36.9,34.2,29.36,SW,225,2.0,3.0,90,0.01,,,0.04,meteohub,2013-02-13 07:02:00,
2013-02-13 02:08:00,36.9,34.2,29.36,East,90,2.0,3.0,90,0.01,,,0.04,meteohub,2013-02-13 07:08:00,
2013-02-13 02:14:00,37.0,34.3,29.36,NE,45,1.0,3.0,90,0.01,,,0.04,meteohub,2013-02-13 07:14:00,
2013-02-13 02:20:00,37.0,34.3,29.36,SE,135,1.0,2.0,90,0.01,,,0.04,meteohub,2013-02-13 07:20:00,
2013-02-13 02:26:00,37.0,34.3,29.36,North,0,2.0,2.0,90,0.01,,,0.04,meteohub,2013-02-13 07:26:00,
2013-02-13 02:32:00,37.2,34.5,29.36,SW,225,0.0,2.0,90,0.00,,,0.04,meteohub,2013-02-13 07:32:00,
2013-02-13 02:37:00,37.0,34.3,29.35,SW,225,0.0,2.0,90,0.00,,,0.04,meteohub,2013-02-13 07:37:00,
2013-02-13 02:44:00,37.0,34.3,29.35,NE,45,0.0,2.0,90,0.00,,,0.04,meteohub,2013-02-13 07:44:00,
2013-02-13 02:50:00,37.0,34.3,29.35,NE,45,0.0,1.0,90,0.00,,,0.04,meteohub,2013-02-13 07:50:00,
2013-02-13 02:56:00,37.0,34.7,29.34,SE,135,2.0,2.0,91,0.00,,,0.04,meteohub,2013-02-13 07:56:00,
2013-02-13 03:02:00,37.0,34.7,29.34,SE,135,2.0,2.0,91,0.00,,,0.04,meteohub,2013-02-13 08:02:00,
2013-02-13 03:07:00,37.0,34.7,29.35,SE,135,2.0,2.0,91,0.00,,,0.04,meteohub,2013-02-13 08:07:00,
2013-02-13 03:13:00,37.0,34.7,29.34,North,0,1.0,2.0,91,0.00,,,0.04,meteohub,2013-02-13 08:13:00,
2013-02-13 03:20:00,37.2,34.9,29.34,NE,45,1.0,2.0,91,0.00,,,0.04,meteohub,2013-02-13 08:20:00,
2013-02-13 03:26:00,37.0,34.7,29.34,NE,45,0.0,2.0,91,0.00,,,0.04,meteohub,2013-02-13 08:26:00,
2013-02-13 03:32:00,37.2,34.9,29.32,SE,135,1.0,2.0,91,0.00,,,0.04,meteohub,2013-02-13 08:32:00,
2013-02-13 03:38:00,37.2,34.9,29.32,NE,45,0.0,2.0,91,0.02,,,0.06,meteohub,2013-02-13 08:38:00,
2013-02-13 03:44:00,37.2,34.9,29.32,SE,135,1.0,2.0,91,0.02,,,0.06,meteohub,2013-02-13 08:44:00,
2013-02-13 03:51:00,37.2,34.9,29.31,SSE,158,2.0,2.0,91,0.02,,,0.06,meteohub,2013-02-13 08:51:00,
2013-02-13 03:57:00,37.4,36.1,29.31,East,90,0.0,2.0,95,0.02,,,0.06,meteohub,2013-02-13 08:57:00,
2013-02-13 04:03:00,37.4,36.1,29.31,NW,315,2.0,2.0,95,0.02,,,0.06,meteohub,2013-02-13 09:03:00,
2013-02-13 04:09:00,37.6,36.3,29.31,NE,45,2.0,2.0,95,0.02,,,0.06,meteohub,2013-02-13 09:09:00,
2013-02-13 04:15:00,37.6,36.3,29.31,North,0,2.0,2.0,95,0.04,,,0.07,meteohub,2013-02-13 09:15:00,
2013-02-13 04:22:00,37.6,36.3,29.31,South,180,1.0,2.0,95,0.04,,,0.07,meteohub,2013-02-13 09:22:00,
2013-02-13 04:28:00,37.8,36.5,29.31,South,180,4.0,4.0,95,0.04,,,0.07,meteohub,2013-02-13 09:28:00,
2013-02-13 04:34:00,37.8,36.5,29.30,NW,315,2.0,4.0,95,0.01,,,0.07,meteohub,2013-02-13 09:34:00,
2013-02-13 04:40:00,37.8,36.5,29.31,North,0,2.0,4.0,95,0.01,,,0.07,meteohub,2013-02-13 09:40:00,
2013-02-13 04:46:00,37.9,36.7,29.31,NE,45,2.0,4.0,95,0.01,,,0.07,meteohub,2013-02-13 09:46:00,
2013-02-13 04:52:00,38.1,37.0,29.31,SE,135,1.0,3.0,96,0.01,,,0.07,meteohub,2013-02-13 09:52:00,
2013-02-13 04:59:00,39.2,37.9,29.30,NE,45,4.0,4.0,95,0.01,,,0.07,meteohub,2013-02-13 09:59:00,
2013-02-13 05:05:00,39.6,38.5,29.29,NW,315,4.0,4.0,96,0.01,,,0.07,meteohub,2013-02-13 10:05:00,
2013-02-13 05:11:00,40.6,39.9,29.30,ENE,68,8.0,8.0,97,0.01,,,0.07,meteohub,2013-02-13 10:11:00,
2013-02-13 05:17:00,41.0,40.3,29.30,East,90,3.0,8.0,97,0.00,,,0.07,meteohub,2013-02-13 10:17:00,
2013-02-13 05:22:00,41.0,40.3,29.29,NE,45,2.0,8.0,97,0.00,,,0.07,meteohub,2013-02-13 10:22:00,
2013-02-13 05:28:00,41.0,40.3,29.28,NE,45,4.0,6.0,97,0.00,,,0.07,meteohub,2013-02-13 10:28:00,
2013-02-13 05:34:00,41.0,40.3,29.29,NE,45,3.0,5.0,97,0.00,,,0.07,meteohub,2013-02-13 10:34:00,
2013-02-13 05:40:00,41.0,40.3,29.28,NE,45,3.0,5.0,97,0.00,,,0.07,meteohub,2013-02-13 10:40:00,
2013-02-13 05:46:00,41.0,40.5,29.27,NE,45,2.0,6.0,98,0.00,,,0.07,meteohub,2013-02-13 10:46:00,
2013-02-13 05:53:00,41.2,40.6,29.27,NE,45,3.0,6.0,98,0.00,,,0.07,meteohub,2013-02-13 10:53:00,
2013-02-13 05:59:00,41.4,40.8,29.27,NE,45,4.0,6.0,98,0.00,,,0.07,meteohub,2013-02-13 10:59:00,
2013-02-13 06:05:00,41.5,41.0,29.28,SW,225,2.0,6.0,98,0.00,,,0.07,meteohub,2013-02-13 11:05:00,
2013-02-13 06:11:00,41.9,41.7,29.27,NE,45,4.0,5.0,99,0.00,,,0.07,meteohub,2013-02-13 11:11:00,
2013-02-13 06:17:00,42.3,42.1,29.27,NE,45,2.0,5.0,99,0.00,,,0.07,meteohub,2013-02-13 11:17:00,
2013-02-13 06:22:00,42.3,42.1,29.27,NW,315,5.0,7.0,99,0.00,,,0.07,meteohub,2013-02-13 11:22:00,
2013-02-13 06:28:00,43.0,42.4,29.28,North,0,4.0,7.0,98,0.00,,,0.07,meteohub,2013-02-13 11:28:00,
2013-02-13 06:35:00,43.3,42.8,29.27,East,90,3.0,6.0,98,0.00,,,0.07,meteohub,2013-02-13 11:35:00,
2013-02-13 06:41:00,43.3,42.8,29.27,NE,45,2.0,6.0,98,0.00,,,0.07,meteohub,2013-02-13 11:41:00,
2013-02-13 06:47:00,43.3,42.8,29.28,East,90,3.0,6.0,98,0.00,,,0.07,meteohub,2013-02-13 11:47:00,
2013-02-13 06:53:00,43.0,42.4,29.29,NE,45,3.0,4.0,98,0.00,,,0.07,meteohub,2013-02-13 11:53:00,
2013-02-13 06:59:00,43.0,42.4,29.28,South,180,2.0,4.0,98,0.00,,,0.07,meteohub,2013-02-13 11:59:00,
2013-02-13 07:05:00,43.0,42.4,29.29,South,180,2.0,7.0,98,0.00,,,0.07,meteohub,2013-02-13 12:05:00,
2013-02-13 07:11:00,43.3,42.8,29.27,East,90,4.0,7.0,98,0.00,,,0.07,meteohub,2013-02-13 12:11:00,
2013-02-13 07:17:00,43.5,43.0,29.29,NW,315,4.0,7.0,98,0.00,,,0.07,meteohub,2013-02-13 12:17:00,
2013-02-13 07:22:00,43.5,43.0,29.29,East,90,4.0,5.0,98,0.00,,,0.07,meteohub,2013-02-13 12:22:00,
2013-02-13 07:29:00,43.3,42.8,29.29,SE,135,9.0,9.0,98,0.00,,,0.07,meteohub,2013-02-13 12:29:00,
2013-02-13 07:35:00,43.3,42.6,29.29,East,90,6.0,9.0,97,0.00,,,0.07,meteohub,2013-02-13 12:35:00,
2013-02-13 07:41:00,43.3,42.6,29.27,East,90,2.0,9.0,97,0.00,,,0.07,meteohub,2013-02-13 12:41:00,
2013-02-13 07:47:00,43.0,41.9,29.29,NE,45,2.0,8.0,96,0.00,,,0.07,meteohub,2013-02-13 12:47:00,
2013-02-13 07:52:00,43.0,41.9,29.28,SW,225,4.0,7.0,96,0.00,,,0.07,meteohub,2013-02-13 12:52:00,
2013-02-13 07:55:00,43.0,41.7,29.27,SE,135,2.0,8.0,95,0.00,,,0.07,meteohub,2013-02-13 12:55:00,
2013-02-13 08:02:00,43.2,41.9,29.28,North,0,2.0,10.0,95,0.00,,,0.07,meteohub,2013-02-13 13:02:00,
2013-02-13 08:10:00,43.3,41.7,29.27,South,180,2.0,10.0,94,0.00,,,0.07,meteohub,2013-02-13 13:10:00,
2013-02-13 08:17:00,43.3,41.5,29.27,East,90,4.0,8.0,93,0.00,,,0.07,meteohub,2013-02-13 13:17:00,
2013-02-13 08:23:00,43.3,41.2,29.28,SW,225,5.0,8.0,92,0.00,,,0.07,meteohub,2013-02-13 13:23:00,
2013-02-13 08:29:00,43.3,41.2,29.28,SSW,203,5.0,8.0,92,0.00,,,0.07,meteohub,2013-02-13 13:29:00,
2013-02-13 08:35:00,43.3,40.8,29.28,NE,45,4.0,10.0,91,0.00,,,0.07,meteohub,2013-02-13 13:35:00,
2013-02-13 08:41:00,43.7,41.5,29.28,SE,135,1.0,10.0,92,0.00,,,0.07,meteohub,2013-02-13 13:41:00,
2013-02-13 08:47:00,43.9,41.7,29.28,South,180,6.0,6.0,92,0.00,,,0.07,meteohub,2013-02-13 13:47:00,
2013-02-13 08:52:00,44.1,41.5,29.28,South,180,7.0,9.0,91,0.00,,,0.07,meteohub,2013-02-13 13:52:00,
2013-02-13 08:58:00,44.1,41.4,29.27,SW,225,8.0,13.0,90,0.00,,,0.07,meteohub,2013-02-13 13:58:00,
2013-02-13 09:04:00,43.7,40.6,29.28,South,180,6.0,13.0,89,0.00,,,0.07,meteohub,2013-02-13 14:04:00,
2013-02-13 09:11:00,43.3,40.3,29.28,SE,135,4.0,9.0,89,0.00,,,0.07,meteohub,2013-02-13 14:11:00,
2013-02-13 09:17:00,43.2,40.1,29.29,SE,135,8.0,12.0,89,0.00,,,0.07,meteohub,2013-02-13 14:17:00,
2013-02-13 09:23:00,43.0,39.9,29.29,SE,135,5.0,12.0,89,0.00,,,0.07,meteohub,2013-02-13 14:23:00,
2013-02-13 09:29:00,42.8,39.7,29.28,SE,135,4.0,12.0,89,0.00,,,0.07,meteohub,2013-02-13 14:29:00,
2013-02-13 09:35:00,43.0,39.9,29.27,SW,225,7.0,13.0,89,0.00,,,0.07,meteohub,2013-02-13 14:35:00,
2013-02-13 09:41:00,43.0,39.9,29.28,SE,135,6.0,13.0,89,0.00,,,0.07,meteohub,2013-02-13 14:41:00,
2013-02-13 09:47:00,43.2,40.1,29.28,SW,225,12.0,13.0,89,0.00,,,0.07,meteohub,2013-02-13 14:47:00,
2013-02-13 09:52:00,43.2,40.1,29.27,SE,135,2.0,12.0,89,0.00,,,0.07,meteohub,2013-02-13 14:52:00,
2013-02-13 09:58:00,43.5,40.5,29.27,SW,225,3.0,12.0,89,0.00,,,0.07,meteohub,2013-02-13 14:58:00,
2013-02-13 10:04:00,44.1,41.0,29.26,South,180,6.0,12.0,89,0.00,,,0.07,meteohub,2013-02-13 15:04:00,
2013-02-13 10:10:00,44.2,41.0,29.27,South,180,4.0,6.0,88,0.00,,,0.07,meteohub,2013-02-13 15:10:00,
2013-02-13 10:17:00,44.2,41.0,29.27,North,0,1.0,6.0,88,0.00,,,0.07,meteohub,2013-02-13 15:17:00,
2013-02-13 10:23:00,44.4,40.8,29.27,South,180,5.0,6.0,87,0.00,,,0.07,meteohub,2013-02-13 15:23:00,
2013-02-13 10:29:00,44.2,40.3,29.27,SSW,203,8.0,8.0,86,0.00,,,0.07,meteohub,2013-02-13 15:29:00,
2013-02-13 10:35:00,44.2,40.1,29.28,South,180,4.0,10.0,85,0.00,,,0.07,meteohub,2013-02-13 15:35:00,
2013-02-13 10:41:00,44.4,40.3,29.27,WNW,293,4.0,10.0,85,0.00,,,0.07,meteohub,2013-02-13 15:41:00,
2013-02-13 10:47:00,44.2,39.7,29.27,East,90,8.0,9.0,84,0.00,,,0.07,meteohub,2013-02-13 15:47:00,
2013-02-13 10:52:00,44.4,39.9,29.27,SSW,203,4.0,9.0,84,0.00,,,0.07,meteohub,2013-02-13 15:52:00,
2013-02-13 10:58:00,44.4,39.6,29.27,NE,45,4.0,9.0,83,0.00,,,0.07,meteohub,2013-02-13 15:58:00,
2013-02-13 11:04:00,45.0,39.6,29.27,South,180,4.0,11.0,81,0.00,,,0.07,meteohub,2013-02-13 16:04:00,
2013-02-13 11:11:00,44.6,38.8,29.28,East,90,8.0,12.0,80,0.00,,,0.07,meteohub,2013-02-13 16:11:00,
2013-02-13 11:17:00,44.4,39.0,29.27,ESE,113,8.0,12.0,81,0.00,,,0.07,meteohub,2013-02-13 16:17:00,
2013-02-13 11:23:00,44.2,38.5,29.28,SSW,203,17.0,17.0,80,0.00,,,0.07,meteohub,2013-02-13 16:23:00,
2013-02-13 11:29:00,44.1,38.3,29.28,North,0,7.0,17.0,80,0.00,,,0.07,meteohub,2013-02-13 16:29:00,
2013-02-13 11:35:00,44.4,38.7,29.28,SE,135,4.0,17.0,80,0.00,,,0.07,meteohub,2013-02-13 16:35:00,
2013-02-13 11:41:00,44.4,38.3,29.27,South,180,3.0,13.0,79,0.00,,,0.07,meteohub,2013-02-13 16:41:00,
2013-02-13 11:47:00,44.4,37.9,29.27,NW,315,7.0,7.0,78,0.00,,,0.07,meteohub,2013-02-13 16:47:00,
2013-02-13 11:52:00,43.9,37.4,29.27,South,180,3.0,13.0,78,0.00,,,0.07,meteohub,2013-02-13 16:52:00,
2013-02-13 11:58:00,44.1,37.9,29.26,NW,315,12.0,13.0,79,0.00,,,0.07,meteohub,2013-02-13 16:58:00,
2013-02-13 12:05:00,44.2,37.6,29.27,SE,135,21.0,21.0,77,0.00,,,0.07,meteohub,2013-02-13 17:05:00,
2013-02-13 12:11:00,43.9,36.9,29.27,SW,225,25.0,25.0,76,0.00,,,0.07,meteohub,2013-02-13 17:11:00,
2013-02-13 12:17:00,43.5,36.1,29.26,SW,225,12.0,25.0,75,0.00,,,0.07,meteohub,2013-02-13 17:17:00,
2013-02-13 12:23:00,43.0,35.6,29.25,South,180,12.0,25.0,75,0.00,,,0.07,meteohub,2013-02-13 17:23:00,
2013-02-13 12:29:00,43.0,35.6,29.26,SE,135,7.0,25.0,75,0.00,,,0.07,meteohub,2013-02-13 17:29:00,
2013-02-13 12:35:00,43.0,36.0,29.26,South,180,21.0,21.0,76,0.00,,,0.07,meteohub,2013-02-13 17:35:00,
2013-02-13 12:42:00,42.6,36.0,29.26,SW,225,4.0,21.0,77,0.00,,,0.07,meteohub,2013-02-13 17:42:00,
2013-02-13 12:48:00,42.8,36.1,29.26,South,180,7.0,21.0,77,0.00,,,0.07,meteohub,2013-02-13 17:48:00,
2013-02-13 12:54:00,43.2,35.4,29.25,SW,225,7.0,21.0,74,0.00,,,0.07,meteohub,2013-02-13 17:54:00,
2013-02-13 13:00:00,43.3,35.6,29.26,South,180,19.0,19.0,74,0.00,,,0.07,meteohub,2013-02-13 18:00:00,
2013-02-13 13:06:00,43.0,34.5,29.26,North,0,8.0,23.0,72,0.00,,,0.07,meteohub,2013-02-13 18:06:00,
2013-02-13 13:13:00,42.8,34.3,29.25,SW,225,4.0,23.0,72,0.00,,,0.07,meteohub,2013-02-13 18:13:00,
2013-02-13 13:19:00,43.5,35.1,29.26,SW,225,7.0,23.0,72,0.00,,,0.07,meteohub,2013-02-13 18:19:00,
2013-02-13 13:25:00,43.3,34.5,29.25,NW,315,5.0,14.0,71,0.00,,,0.07,meteohub,2013-02-13 18:25:00,
2013-02-13 13:32:00,43.7,34.5,29.25,ESE,113,11.0,14.0,70,0.00,,,0.07,meteohub,2013-02-13 18:32:00,
2013-02-13 13:38:00,43.0,33.8,29.26,East,90,4.0,14.0,70,0.00,,,0.07,meteohub,2013-02-13 18:38:00,
2013-02-13 13:44:00,42.6,34.2,29.25,NE,45,11.0,13.0,72,0.00,,,0.07,meteohub,2013-02-13 18:44:00,
2013-02-13 13:50:00,42.4,34.3,29.26,South,180,11.0,13.0,73,0.00,,,0.07,meteohub,2013-02-13 18:50:00,
2013-02-13 13:56:00,42.3,34.5,29.25,SW,225,14.0,17.0,74,0.00,,,0.07,meteohub,2013-02-13 18:56:00,
2013-02-13 14:02:00,41.9,34.2,29.25,East,90,2.0,17.0,74,0.00,,,0.07,meteohub,2013-02-13 19:02:00,
2013-02-13 14:07:00,42.1,34.3,29.26,SW,225,9.0,14.0,74,0.00,,,0.07,meteohub,2013-02-13 19:07:00,
2013-02-13 14:13:00,42.3,34.2,29.25,North,0,6.0,15.0,73,0.00,,,0.07,meteohub,2013-02-13 19:13:00,
2013-02-13 14:19:00,42.6,34.9,29.26,NW,315,5.0,15.0,74,0.00,,,0.07,meteohub,2013-02-13 19:19:00,
2013-02-13 14:25:00,43.2,34.7,29.25,SE,135,4.0,17.0,72,0.00,,,0.07,meteohub,2013-02-13 19:25:00,
2013-02-13 14:32:00,43.0,34.2,29.25,SW,225,8.0,17.0,71,0.00,,,0.07,meteohub,2013-02-13 19:32:00,
2013-02-13 14:38:00,42.4,34.3,29.25,NW,315,7.0,12.0,73,0.00,,,0.07,meteohub,2013-02-13 19:38:00,
2013-02-13 14:44:00,41.9,34.2,29.25,East,90,7.0,15.0,74,0.00,,,0.07,meteohub,2013-02-13 19:44:00,
2013-02-13 14:50:00,41.9,34.5,29.26,South,180,7.0,15.0,75,0.00,,,0.07,meteohub,2013-02-13 19:50:00,
2013-02-13 14:56:00,41.9,34.2,29.26,NW,315,5.0,24.0,74,0.00,,,0.07,meteohub,2013-02-13 19:56:00,
2013-02-13 15:02:00,42.1,34.0,29.26,West,270,9.0,24.0,73,0.00,,,0.07,meteohub,2013-02-13 20:02:00,
2013-02-13 15:07:00,41.4,33.6,29.25,SW,225,11.0,24.0,74,0.00,,,0.07,meteohub,2013-02-13 20:07:00,
2013-02-13 15:13:00,40.8,34.2,29.26,SE,135,4.0,16.0,77,0.00,,,0.07,meteohub,2013-02-13 20:13:00,
2013-02-13 15:19:00,39.6,34.2,29.26,SW,225,13.0,16.0,81,0.00,,,0.07,meteohub,2013-02-13 20:19:00,
2013-02-13 15:26:00,38.8,34.3,29.26,North,0,11.0,18.0,84,0.00,,,0.07,meteohub,2013-02-13 20:26:00,
2013-02-13 15:32:00,38.8,35.1,29.26,SSW,203,8.0,18.0,86,0.00,,,0.07,meteohub,2013-02-13 20:32:00,
2013-02-13 15:38:00,39.6,35.8,29.26,SE,135,3.0,15.0,86,0.00,,,0.07,meteohub,2013-02-13 20:38:00,
2013-02-13 15:45:00,40.1,35.4,29.27,SW,225,11.0,15.0,83,0.00,,,0.07,meteohub,2013-02-13 20:45:00,
2013-02-13 15:51:00,39.6,34.5,29.28,South,180,15.0,17.0,82,0.00,,,0.07,meteohub,2013-02-13 20:51:00,
2013-02-13 15:57:00,39.7,34.7,29.28,SE,135,4.0,17.0,82,0.00,,,0.07,meteohub,2013-02-13 20:57:00,
2013-02-13 16:02:00,39.6,34.5,29.28,South,180,9.0,17.0,82,0.00,,,0.07,meteohub,2013-02-13 21:02:00,
2013-02-13 16:08:00,39.2,34.2,29.29,SW,225,2.0,15.0,82,0.00,,,0.07,meteohub,2013-02-13 21:08:00,
2013-02-13 16:14:00,39.0,34.5,29.29,South,180,4.0,12.0,84,0.00,,,0.07,meteohub,2013-02-13 21:14:00,
2013-02-13 16:20:00,38.7,34.2,29.29,SSW,203,11.0,12.0,84,0.01,,,0.08,meteohub,2013-02-13 21:20:00,
2013-02-13 16:26:00,38.8,34.3,29.29,NW,315,7.0,11.0,84,0.01,,,0.08,meteohub,2013-02-13 21:26:00,
2013-02-13 16:32:00,38.8,34.3,29.29,SW,225,7.0,12.0,84,0.01,,,0.08,meteohub,2013-02-13 21:32:00,
2013-02-13 16:37:00,38.3,33.6,29.29,South,180,2.0,12.0,83,0.01,,,0.08,meteohub,2013-02-13 21:37:00,
2013-02-13 16:43:00,38.1,33.8,29.29,SW,225,8.0,12.0,84,0.01,,,0.08,meteohub,2013-02-13 21:43:00,
2013-02-13 16:49:00,37.9,33.6,29.29,East,90,4.0,11.0,84,0.01,,,0.08,meteohub,2013-02-13 21:49:00,
2013-02-13 16:55:00,37.8,33.4,29.29,NE,45,2.0,8.0,84,0.01,,,0.08,meteohub,2013-02-13 21:55:00,
2013-02-13 17:01:00,37.6,33.4,29.29,SW,225,7.0,7.0,85,0.01,,,0.08,meteohub,2013-02-13 22:01:00,
2013-02-13 17:08:00,37.2,32.0,29.30,NE,45,2.0,7.0,81,0.01,,,0.08,meteohub,2013-02-13 22:08:00,
2013-02-13 17:14:00,37.0,32.0,29.30,North,0,11.0,11.0,82,0.01,,,0.08,meteohub,2013-02-13 22:14:00,
2013-02-13 17:20:00,36.9,31.6,29.31,SE,135,7.0,11.0,81,0.00,,,0.08,meteohub,2013-02-13 22:20:00,
2013-02-13 17:26:00,36.9,31.6,29.31,North,0,8.0,14.0,81,0.00,,,0.08,meteohub,2013-02-13 22:26:00,
2013-02-13 17:32:00,36.7,31.5,29.31,SW,225,4.0,14.0,81,0.00,,,0.08,meteohub,2013-02-13 22:32:00,
2013-02-13 17:37:00,36.5,30.9,29.31,NW,315,6.0,14.0,80,0.00,,,0.08,meteohub,2013-02-13 22:37:00,
2013-02-13 17:43:00,36.3,30.7,29.31,SE,135,3.0,8.0,80,0.00,,,0.08,meteohub,2013-02-13 22:43:00,
2013-02-13 17:49:00,36.1,30.2,29.32,South,180,14.0,14.0,79,0.01,,,0.09,meteohub,2013-02-13 22:49:00,
2013-02-13 17:56:00,36.1,30.0,29.34,NE,45,6.0,14.0,78,0.01,,,0.09,meteohub,2013-02-13 22:56:00,
2013-02-13 18:02:00,36.3,29.1,29.34,SW,225,7.0,14.0,75,0.01,,,0.09,meteohub,2013-02-13 23:02:00,
2013-02-13 18:07:00,36.1,28.6,29.34,SW,225,8.0,20.0,74,0.01,,,0.09,meteohub,2013-02-13 23:07:00,
2013-02-13 18:13:00,36.0,28.4,29.34,South,180,7.0,20.0,74,0.01,,,0.09,meteohub,2013-02-13 23:13:00,
2013-02-13 18:19:00,35.8,28.4,29.35,SW,225,8.0,12.0,74,0.01,,,0.09,meteohub,2013-02-13 23:19:00,
2013-02-13 18:25:00,35.6,28.2,29.34,West,270,11.0,12.0,74,0.01,,,0.09,meteohub,2013-02-13 23:25:00,
2013-02-13 18:31:00,35.4,28.0,29.35,NE,45,3.0,22.0,74,0.01,,,0.09,meteohub,2013-02-13 23:31:00,
2013-02-13 18:38:00,34.9,27.5,29.35,NW,315,2.0,22.0,74,0.01,,,0.09,meteohub,2013-02-13 23:38:00,
2013-02-13 18:44:00,34.5,27.7,29.35,South,180,7.0,22.0,76,0.01,,,0.09,meteohub,2013-02-13 23:44:00,
2013-02-13 18:50:00,34.3,27.9,29.35,NE,45,2.0,12.0,77,0.00,,,0.09,meteohub,2013-02-13 23:50:00,
2013-02-13 18:56:00,34.0,27.9,29.35,South,180,12.0,12.0,78,0.00,,,0.09,meteohub,2013-02-13 23:56:00,
2013-02-13 19:02:00,33.8,27.3,29.36,South,180,2.0,12.0,77,0.00,,,0.09,meteohub,2013-02-14 00:02:00,
2013-02-13 19:07:00,33.6,27.5,29.36,East,90,3.0,12.0,78,0.00,,,0.09,meteohub,2013-02-14 00:07:00,
2013-02-13 19:13:00,33.8,27.0,29.36,South,180,2.0,12.0,76,0.00,,,0.09,meteohub,2013-02-14 00:13:00,
2013-02-13 19:19:00,33.8,27.3,29.37,NW,315,1.0,7.0,77,0.00,,,0.09,meteohub,2013-02-14 00:19:00,
2013-02-13 19:26:00,33.6,27.9,29.38,NW,315,4.0,4.0,79,0.00,,,0.09,meteohub,2013-02-14 00:26:00,
2013-02-13 19:32:00,33.8,26.4,29.37,North,0,3.0,8.0,74,0.00,,,0.09,meteohub,2013-02-14 00:32:00,
2013-02-13 19:38:00,33.6,25.9,29.37,NE,45,4.0,8.0,73,0.00,,,0.09,meteohub,2013-02-14 00:38:00,
2013-02-13 19:44:00,33.4,25.7,29.38,South,180,8.0,8.0,73,0.00,,,0.09,meteohub,2013-02-14 00:44:00,
2013-02-13 19:50:00,33.4,25.3,29.38,SW,225,2.0,11.0,72,0.00,,,0.09,meteohub,2013-02-14 00:50:00,
2013-02-13 19:56:00,33.3,25.2,29.37,South,180,6.0,11.0,72,0.00,,,0.09,meteohub,2013-02-14 00:56:00,
2013-02-13 20:02:00,33.3,25.2,29.38,South,180,4.0,11.0,72,0.00,,,0.09,meteohub,2013-02-14 01:02:00,
2013-02-13 20:07:00,33.1,25.0,29.38,NE,45,0.0,7.0,72,0.00,,,0.09,meteohub,2013-02-14 01:07:00,
2013-02-13 20:13:00,32.9,24.8,29.38,SW,225,8.0,8.0,72,0.00,,,0.09,meteohub,2013-02-14 01:13:00,
2013-02-13 20:20:00,32.9,24.8,29.38,East,90,3.0,6.0,72,0.00,,,0.09,meteohub,2013-02-14 01:20:00,
2013-02-13 20:26:00,32.5,25.2,29.39,SE,135,1.0,8.0,74,0.00,,,0.09,meteohub,2013-02-14 01:26:00,
2013-02-13 20:32:00,32.5,25.2,29.39,South,180,5.0,5.0,74,0.00,,,0.09,meteohub,2013-02-14 01:32:00,
2013-02-13 20:37:00,32.7,25.3,29.39,SW,225,2.0,5.0,74,0.00,,,0.09,meteohub,2013-02-14 01:37:00,
2013-02-13 20:43:00,32.5,25.2,29.39,SSW,203,4.0,5.0,74,0.00,,,0.09,meteohub,2013-02-14 01:43:00,
2013-02-13 20:49:00,32.2,24.8,29.39,South,180,8.0,8.0,74,0.00,,,0.09,meteohub,2013-02-14 01:49:00,
2013-02-13 20:55:00,32.0,25.0,29.39,South,180,0.0,8.0,75,0.00,,,0.09,meteohub,2013-02-14 01:55:00,
2013-02-13 21:01:00,31.5,24.8,29.39,NW,315,2.0,8.0,76,0.00,,,0.09,meteohub,2013-02-14 02:01:00,
2013-02-13 21:07:00,30.9,24.6,29.39,NW,315,4.0,8.0,77,0.00,,,0.09,meteohub,2013-02-14 02:07:00,
2013-02-13 21:13:00,30.7,25.0,29.39,NE,45,1.0,3.0,79,0.00,,,0.09,meteohub,2013-02-14 02:13:00,
2013-02-13 21:20:00,30.6,25.2,29.39,North,0,4.0,6.0,80,0.00,,,0.09,meteohub,2013-02-14 02:20:00,
2013-02-13 21:26:00,30.6,25.2,29.40,SW,225,1.0,6.0,80,0.00,,,0.09,meteohub,2013-02-14 02:26:00,
2013-02-13 21:32:00,30.2,25.2,29.40,North,0,2.0,5.0,81,0.00,,,0.09,meteohub,2013-02-14 02:32:00,
2013-02-13 21:38:00,29.7,24.8,29.40,North,0,0.0,5.0,82,0.00,,,0.09,meteohub,2013-02-14 02:38:00,
2013-02-13 21:44:00,29.3,24.4,29.40,North,0,1.0,6.0,82,0.00,,,0.09,meteohub,2013-02-14 02:44:00,
2013-02-13 21:50:00,29.3,24.8,29.40,North,0,2.0,6.0,83,0.00,,,0.09,meteohub,2013-02-14 02:50:00,
2013-02-13 21:57:00,29.5,25.2,29.40,NE,45,2.0,3.0,84,0.00,,,0.09,meteohub,2013-02-14 02:57:00,
2013-02-13 22:02:00,29.5,25.0,29.41,North,0,2.0,3.0,83,0.00,,,0.09,meteohub,2013-02-14 03:02:00,
2013-02-13 22:07:00,29.5,25.2,29.41,West,270,1.0,3.0,84,0.00,,,0.09,meteohub,2013-02-14 03:07:00,
2013-02-13 22:14:00,29.5,25.2,29.40,North,0,2.0,3.0,84,0.00,,,0.09,meteohub,2013-02-14 03:14:00,
2013-02-13 22:20:00,29.1,25.0,29.41,NE,45,2.0,4.0,84,0.00,,,0.09,meteohub,2013-02-14 03:20:00,
2013-02-13 22:26:00,29.1,25.2,29.41,NE,45,4.0,4.0,85,0.00,,,0.09,meteohub,2013-02-14 03:26:00,
2013-02-13 22:32:00,29.1,25.2,29.41,NE,45,0.0,4.0,85,0.00,,,0.09,meteohub,2013-02-14 03:32:00,
2013-02-13 22:37:00,28.6,24.4,29.42,NW,315,2.0,4.0,84,0.00,,,0.09,meteohub,2013-02-14 03:37:00,
2013-02-13 22:43:00,28.2,23.2,29.42,North,0,2.0,4.0,81,0.00,,,0.09,meteohub,2013-02-14 03:43:00,
2013-02-13 22:49:00,28.2,23.4,29.42,North,0,0.0,2.0,82,0.00,,,0.09,meteohub,2013-02-14 03:49:00,
2013-02-13 22:55:00,28.2,23.4,29.41,NE,45,2.0,2.0,82,0.00,,,0.09,meteohub,2013-02-14 03:55:00,
2013-02-13 23:01:00,28.4,25.0,29.42,North,0,0.0,2.0,87,0.00,,,0.09,meteohub,2013-02-14 04:01:00,
2013-02-13 23:07:00,28.0,23.5,29.41,NW,315,0.0,2.0,83,0.00,,,0.09,meteohub,2013-02-14 04:07:00,
2013-02-13 23:13:00,27.5,23.0,29.42,NW,315,2.0,2.0,83,0.00,,,0.09,meteohub,2013-02-14 04:13:00,
2013-02-13 23:20:00,27.9,23.7,29.42,NW,315,2.0,0.0,84,0.00,,,0.09,meteohub,2013-02-14 04:20:00,
2013-02-13 23:26:00,27.9,23.7,29.42,NE,45,2.0,3.0,84,0.00,,,0.09,meteohub,2013-02-14 04:26:00,
2013-02-13 23:32:00,27.9,23.7,29.42,NE,45,2.0,3.0,84,0.00,,,0.09,meteohub,2013-02-14 04:32:00,
2013-02-13 23:37:00,27.9,23.7,29.42,NE,45,2.0,2.0,84,0.00,,,0.09,meteohub,2013-02-14 04:37:00,
2013-02-13 23:43:00,28.0,24.1,29.42,NE,45,0.0,2.0,85,0.00,,,0.09,meteohub,2013-02-14 04:43:00,
2013-02-13 23:49:00,27.9,23.7,29.43,SE,135,2.0,2.0,84,0.00,,,0.09,meteohub,2013-02-14 04:49:00,
2013-02-13 23:55:00,27.7,23.5,29.43,East,90,1.0,2.0,84,0.00,,,0.09,meteohub,2013-02-14 04:55:00,